Location: Azat
(46.0765°N, 1.7600°E)
Time: 21:23:34
(UTC+00:00)

Cosmos 2082 Rocket - Pass Details

Date: 09 April 2020
Orbit: 831 x 855 km, 71.0° (Epoch: 24 May)

Event Time Altitude Azimuth Distance (km) Brightness Sun altitude
Exits shadow 22:16:14 48° 19° (NNE) 1,089 2.9 -31.6°
Drops below altitude 10° 22:20:16 10° 25° (NNE) 2,471 5.0 -32.0°
Sets 22:22:44 0° 27° (NNE) 3,413 5.8 -32.2°
